COSMOS 2556 (52713 NORAD) Tracking and Keplerian Element Data

This shows tracking and keplerian element data for the satellite.

Feedback or suggestion? Click here.




ElementValue
Catalog52713
NameCOSMOS 2556
Epoch Orbit1978
Epoch Day270.18451119
Epoch Year2022
RAAN185.6218
Inclination97.6867
Eccentricity0.0006084
Argument of Perigee344.4616
Mean Anonmoly162.8383
Mean Motion15.19333952
Decay Rate2.457E-05
L11 52713U 22054A 22270.18451119 .00002457 00000+0 11971-3 0 9993
L22 52713 97.6867 185.6218 0006084 344.4616 162.8383 15.19333952 19787

Live tracking and technical data element details for COSMOS 2556 (NORAD 52713). COSMOS 2556 can be tracked NOW for your location showing map with azimuth and elevation plus other details from your city location.

Track the satellite on the map from your city or location and see movement details for azimuth, elevation, latitude, longitude, range, height, and movement on the map or in text.







IsCatalogInMostPopularTable: catalog: 52713, numindb: 493
Update: records affected: 1



GetName: 52713 COSMOS 2556

Hit Count: updated at: Thu, 06 Oct 2022 03:55:58 GMT